Total_Precipitation_Accumulation
2.06 2.49 2.80 3.33 3.93 4.37 4.78 4.96 5.01 4.91 4.74 4.40 4.09 3.86 3.61 3.40 3.14 2.95 2.85 2.77 2.70 2.91 3.40 3.19 3.47 3.40 3.42 3.47 3.51 3.67 3.58 3.27 3.46 3.56 3.12 2.49 2.04 2.00 1.76 1.70 1.76 1.83 1.84
2.01 2.53 2.85 3.05 3.48 4.01 4.47 4.80 4.98 4.86 4.47 4.13 3.98 3.88 3.83 3.43 3.15 3.13 3.26 3.07 3.08 3.13 3.18 3.42 3.37 3.41 3.58 3.54 3.51 3.68 3.45 3.08 3.35 3.74 3.81 3.08 2.63 2.13 1.60 1.72 1.84 2.03 2.12
2.30 2.59 2.80 2.92 3.17 3.57 3.87 3.98 4.17 4.13 3.97 4.02 4.05 4.02 4.04 3.63 3.56 3.57 3.57 3.36 3.35 3.36 3.36 3.35 3.27 3.29 3.13 3.24 3.33 3.36 3.37 3.30 3.23 3.54 3.90 3.47 2.97 2.53 1.89 1.77 1.80 2.07 2.40
1.98 2.20 2.49 2.76 2.93 3.16 3.47 3.69 3.75 3.70 3.63 3.75 3.83 3.74 3.56 3.45 3.61 3.89 3.82 3.54 3.32 3.19 3.01 2.96 3.14 3.16 2.96 3.03 2.68 2.86 3.07 3.07 2.92 3.21 3.27 3.30 3.30 3.19 2.48 2.02 1.83 1.99 2.21
1.71 1.84 2.05 2.38 2.50 2.83 3.11 3.31 3.56 3.65 3.59 3.67 3.67 3.71 3.55 3.54 3.60 3.61 3.67 3.47 3.28 2.97 2.63 2.66 2.89 2.85 2.75 2.66 2.56 2.76 2.61 2.53 2.61 2.86 3.06 3.14 3.23 3.09 2.90 2.45 2.39 2.35 2.21
1.49 1.72 1.90 2.20 2.37 2.50 2.64 2.74 2.96 3.22 3.40 3.44 3.41 3.46 3.42 3.41 3.38 3.37 3.27 3.07 2.91 2.71 2.40 2.29 2.47 2.58 2.62 2.57 2.53 2.61 2.51 2.55 2.69 2.70 2.78 3.02 3.01 2.98 3.12 2.67 2.51 2.53 2.26
1.22 1.46 1.63 1.80 2.02 2.13 2.25 2.39 2.67 3.01 3.10 3.06 3.02 3.13 3.21 3.23 3.18 3.16 3.02 2.81 2.58 2.36 2.30 2.29 2.39 2.41 2.47 2.35 2.39 2.44 2.48 2.67 2.76 2.69 2.63 2.74 2.76 2.87 3.13 3.07 2.75 2.62 2.41
0.98 1.13 1.40 1.72 1.90 1.89 1.96 2.12 2.42 2.68 2.71 2.64 2.79 3.05 3.12 3.16 3.09 3.13 2.81 2.56 2.37 2.31 2.39 2.36 2.21 2.16 2.26 2.14 2.42 2.34 2.41 2.65 2.73 2.48 2.74 2.75 2.74 3.02 3.26 3.36 3.45 3.11 2.79
0.99 1.07 1.17 1.40 1.53 1.60 1.67 1.82 2.24 2.51 2.60 2.68 2.80 2.92 3.03 3.00 2.97 2.89 2.62 2.36 2.37 2.32 2.44 2.38 2.27 2.17 2.27 2.38 2.66 2.61 2.55 2.77 2.77 2.77 2.97 2.90 2.83 2.97 3.09 3.31 3.57 3.67 3.27
0.84 0.92 0.97 1.09 1.20 1.38 1.65 1.84 1.98 2.28 2.39 2.48 2.63 2.66 2.90 2.82 2.67 2.63 2.41 2.16 2.06 2.12 2.30 2.42 2.35 2.27 2.32 2.51 2.71 2.70 2.84 3.01 3.04 3.10 3.19 3.14 2.94 3.03 3.08 3.12 3.37 3.71 3.64
0.75 0.81 0.94 1.08 1.18 1.32 1.54 1.67 1.70 1.89 2.05 2.18 2.39 2.39 2.41 2.48 2.55 2.38 2.11 2.01 2.01 2.07 2.14 2.32 2.39 2.34 2.39 2.52 2.59 2.55 2.86 3.00 3.03 3.02 3.01 2.98 3.14 3.13 3.00 3.10 3.29 3.57 3.67
0.81 0.86 1.03 1.16 1.24 1.38 1.43 1.48 1.55 1.76 1.94 2.12 2.33 2.39 2.37 2.41 2.45 2.30 2.10 2.04 2.06 2.11 2.11 2.23 2.28 2.18 2.20 2.42 2.44 2.48 2.76 2.93 2.82 2.83 2.84 2.63 2.71 2.81 2.67 2.81 2.89 3.04 3.30
0.87 0.94 1.06 1.11 1.12 1.23 1.37 1.41 1.43 1.64 1.86 2.07 2.36 2.52 2.56 2.52 2.43 2.23 1.97 1.87 1.85 1.94 1.98 2.02 2.05 2.11 2.26 2.37 2.37 2.39 2.38 2.40 2.47 2.70 2.83 2.61 2.60 2.53 2.55 2.58 2.56 2.63 2.73
0.87 0.97 1.00 1.13 1.12 1.16 1.30 1.33 1.40 1.50 1.76 1.99 2.19 2.32 2.21 2.14 2.11 1.98 1.81 1.73 1.73 1.77 1.84 1.92 2.02 2.10 2.17 2.23 2.32 2.39 2.30 2.26 2.30 2.44 2.52 2.50 2.46 2.40 2.51 2.44 2.45 2.52 2.68
0.78 0.83 0.84 0.92 0.98 1.11 1.24 1.17 1.22 1.29 1.43 1.63 1.73 1.87 1.84 1.79 1.77 1.82 1.85 1.84 1.88 1.83 1.90 1.98 2.00 1.99 1.98 1.91 1.98 2.08 2.09 2.22 2.16 2.07 2.08 2.10 2.14 2.13 2.18 2.04 2.23 2.49 2.65
0.58 0.54 0.71 0.82 0.79 0.84 0.95 0.91 0.96 1.11 1.26 1.34 1.45 1.68 1.79 1.80 1.79 1.85 1.97 1.98 1.94 1.93 1.97 1.92 1.97 1.97 1.70 1.88 1.94 1.94 2.03 2.11 2.12 2.04 1.92 1.81 1.81 1.75 1.76 1.72 1.82 2.13 2.37
0.56 0.50 0.58 0.75 0.75 0.77 0.79 0.91 1.03 1.17 1.27 1.41 1.56 1.75 1.86 1.93 1.94 1.91 2.04 1.99 1.99 2.07 2.03 1.95 1.96 1.98 2.04 2.10 1.93 1.79 1.76 1.86 1.92 1.89 1.86 1.63 1.54 1.72 1.70 1.75 1.73 1.76 1.93
0.55 0.55 0.55 0.57 0.63 0.70 0.78 0.94 1.23 1.48 1.53 1.68 1.87 1.97 2.09 2.04 2.01 2.02 2.06 2.15 2.23 2.27 2.25 2.18 2.10 2.08 2.06 2.06 1.86 1.85 1.77 1.77 1.78 1.79 1.83 1.82 1.73 1.79 1.93 1.90 1.82 1.71 1.67
0.56 0.59 0.66 0.69 0.75 0.81 0.85 1.03 1.27 1.58 1.77 1.82 1.92 2.07 2.18 2.22 2.23 2.24 2.23 2.32 2.45 2.40 2.32 2.25 2.27 2.22 2.22 2.29 2.09 2.12 1.96 1.94 1.94 1.97 1.97 1.95 1.85 2.00 1.96 1.85 1.83 1.79 1.78
0.68 0.70 0.74 0.86 1.05 1.12 1.13 1.25 1.37 1.52 1.72 1.79 1.90 2.08 2.32 2.38 2.40 2.55 2.66 2.62 2.58 2.44 2.44 2.43 2.40 2.39 2.42 2.66 2.48 2.31 2.14 2.13 2.12 2.22 2.20 2.23 2.08 2.08 2.01 1.85 1.86 1.88 1.90
0.81 0.79 0.82 0.98 1.23 1.36 1.40 1.50 1.64 1.73 1.74 1.82 1.97 2.16 2.34 2.44 2.52 2.71 2.80 2.78 2.72 2.70 2.65 2.58 2.60 2.58 2.57 2.75 2.51 2.30 2.16 2.21 2.35 2.35 2.26 2.32 2.34 2.13 2.14 2.08 1.98 1.96 1.98
0.92 0.96 1.00 1.16 1.39 1.56 1.54 1.62 1.72 1.74 1.77 1.78 1.93 2.06 2.21 2.23 2.32 2.62 2.72 2.83 2.88 2.83 2.73 2.66 2.52 2.53 2.51 2.43 2.30 2.19 2.15 2.25 2.38 2.45 2.39 2.35 2.35 2.12 2.04 1.90 1.86 1.91 1.81
0.97 1.04 1.10 1.29 1.56 1.74 1.78 1.86 1.77 1.84 1.87 1.89 2.02 2.16 2.24 2.28 2.38 2.51 2.56 2.66 2.75 2.71 2.57 2.58 2.52 2.45 2.44 2.43 2.19 1.97 1.94 2.00 2.04 2.19 2.35 2.28 2.17 1.98 1.79 1.74 1.70 1.60 1.48
0.93 0.99 1.12 1.23 1.34 1.56 1.77 1.89 1.92 1.96 1.96 1.99 2.06 2.15 2.26 2.24 2.33 2.46 2.57 2.68 2.77 2.85 2.73 2.58 2.46 2.44 2.40 2.29 2.11 1.92 1.84 1.95 2.06 2.16 2.23 2.11 2.00 1.81 1.66 1.58 1.49 1.43 1.49
0.96 1.01 1.12 1.17 1.22 1.30 1.45 1.53 1.67 1.79 1.85 1.93 2.01 2.04 2.08 2.17 2.29 2.36 2.47 2.45 2.52 2.55 2.52 2.43 2.39 2.38 2.30 2.16 2.08 1.89 1.78 1.90 2.08 2.15 2.15 2.01 1.95 1.84 1.73 1.66 1.60 1.58 1.61
1.07 1.09 1.14 1.13 1.14 1.21 1.37 1.49 1.59 1.73 1.89 1.99 2.03 1.98 1.92 2.00 2.07 2.16 2.18 2.20 2.09 2.07 2.02 2.01 1.98 1.91 1.82 1.72 1.60 1.58 1.59 1.69 1.86 1.87 1.93 2.03 2.00 1.93 1.84 1.74 1.66 1.61 1.58